Weather Roundup
Issued by NWS

Home | Current Version | Previous Version | Graphics & Text | Print | Product List | Glossary Off
Versions: 1 2 3 4 5 6 7 8 9 10 11 12 13 14 15 16 17 18 19 20 21 22 23 24 25 26 27 28 29 30 31 32 33 34 35 36 37 38 39 40 41 42 43 44 45 46 47 48 49 50

000
NZUS93 KARX 300810
HRRWXR

CURRENT HOURLY OBSERVATIONS ACROSS
MUCH OF THE UPPER MISSISSIPPI VALLEY
NATIONAL WEATHER SERVICE LA CROSSE WI
300 AM CDT SAT JUL 30 2016


...SOUTHEAST MINNESOTA...


CITY           SKY/WX    TMP DP  RH WIND       PRES   REMARKS
ROCHESTER      MOCLDY    63  61  93 NE3       30.04S
ROCHESTER/MAYO PTSUNNY   65  61  86 CALM      30.04S
WINONA         CLOUDY    70  66  88 CALM      30.02S
AUSTIN         MOCLDY    63  59  88 CALM      30.02S
ALBERT LEA     CLEAR     63  59  88 CALM      30.02F
DODGE CENTER   CLOUDY    63  57  82 CALM      30.03S
PRESTON        CLOUDY    63  61  94 CALM      30.04S
OWATONNA       MOCLDY    63  59  88 CALM      30.03S
FARIBAULT      CLOUDY    63  61  94 CALM      30.03S
$$

...ELSEWHERE IN MINNESOTA...


CITY           SKY/WX    TMP DP  RH WIND       PRES   REMARKS
MINNEAPOLIS    MOCLDY    69  58  67 NE5       30.02F
INTNL FALLS    CLEAR     59  53  80 SE3       30.03S
DULUTH         PTCLDY    52  50  93 CALM      30.06F
RED WING       PTCLDY    61  57  88 CALM      30.01S
REDWOOD FALLS  CLEAR     60  55  83 CALM      30.03F
MANKATO        CLEAR     61  52  72 N3        30.03S
WORTHINGTON    PTCLDY    54  52  93 CALM      30.06S
FAIRMONT       PTCLDY    57  52  82 CALM      30.02S
$$

...SOUTHWEST WISCONSIN...


CITY           SKY/WX    TMP DP  RH WIND       PRES   REMARKS
LA CROSSE      CLOUDY    67  65  93 CALM      30.01S
PRAIRIE DU CHI   N/A     66  64  90 CALM      30.00S
BOSCOBEL       FOG       63  62  97 CALM      30.01R VSB 3/4
LONE ROCK      PTCLDY    63  62  97 W3        30.01R
PLATTEVILLE    CLEAR     63  63 100 N5        30.00R
FORT MC COY    CLOUDY    62  61  97 CALM      30.03S
CAMP DOUGLAS   FOG       58  57  99 W2        30.02S VSB 1/2
MAUSTON-NEW LI FOG       60  60 100 CALM      30.01S VSB 1
VIROQUA        CLOUDY    65  65 100 NE3       30.03S
WIS DELLS      CLOUDY    62  59  90 CALM      30.02R
$$

...ELSEWHERE IN WISCONSIN...


CITY           SKY/WX    TMP DP  RH WIND       PRES   REMARKS
MILWAUKEE      CLOUDY    69  59  70 E8        29.97S
MADISON        CLOUDY    64  59  83 N5        29.99S
GREEN BAY      CLEAR     61  60  97 N6        30.02S
EAU CLAIRE     CLEAR     61  61 100 NE5       30.03S
BLACK RVR FLS  CLOUDY    61  61 100 CALM      30.03S FOG
MEDFORD        CLOUDY    56  56 100 N3        30.08R
WAUSAU         CLEAR     59  55  87 CALM      30.05S
WIS RAPIDS     CLOUDY    64  56  75 NE5       30.05R
MARSHFIELD     CLOUDY    62  57  83 NE5       30.05S
RICE LAKE      MOCLDY    57  55  92 CALM      30.07S
$$

...NORTHEAST IOWA...


CITY           SKY/WX    TMP DP  RH WIND       PRES   REMARKS
WATERLOO       CLOUDY    66  64  93 N5        29.99S
DUBUQUE        CLOUDY    66  65  96 NE7       29.99S
DECORAH        CLOUDY    66  66 100 NE5       30.01S
MASON CITY     CLEAR     62  60  93 N6        30.03F
CHARLES CITY   MOCLDY    66  66 100 N5        30.02S
OELWEIN        CLOUDY    66  66 100 NE5       30.01S
$$

...ELSEWHERE IN IOWA...


CITY           SKY/WX    TMP DP  RH WIND       PRES   REMARKS
DES MOINES     PTCLDY    68  64  87 CALM      29.99S
IOWA CITY      CLOUDY    69  66  90 N5        29.98S
FORT DODGE     PTCLDY    63  61  94 CALM      30.03R
MARSHALLTOWN   CLOUDY    64  64 100 N3        29.99S
CEDAR RAPIDS   CLOUDY    67  67 100 NW5       29.97S FOG
$$

...NORTHERN ILLINOIS...


CITY           SKY/WX    TMP DP  RH WIND       PRES   REMARKS
CHICAGO-OHARE  MOCLDY    70  66  87 N7        29.93S
CHICAGO-MIDWAY CLOUDY    72  66  81 NE6       29.92S
MOLINE         CLOUDY    71  66  84 NE8       29.94S
ROCKFORD       MOCLDY    68  65  90 N7        29.96F
PEORIA         CLOUDY    70  69  97 NE3       29.93R FOG
$$

NOTE: "FAIR" INDICATES FEW OR NO CLOUDS BELOW 12,000 FEET WITH NO
SIGNIFICANT WEATHER AND/OR OBSTRUCTIONS TO VISIBILITY. WIND
SPEEDS ARE IN MILES-PER-HOUR.




USA.gov is the U.S. government's official web portal to all federal, state and local government web resources and services.